Location: S�tio Afonso Gruber
(26.1760°S, 49.5250°W)
Time: 00:47:38
(UTC+00:00)

Intelsat 5-3 Rocket - Pass Details

Date: 08 October 2020
Orbit: 281 x 6111 km, 23.6° (Epoch: 22 October)

Event Time Altitude Azimuth Distance (km) Brightness Sun altitude
Rises 22:09:46 0° 329° (NNW) 2,317 5.8 -11.5°
Reaches altitude 10° 22:11:47 10° 350° (N) 1,751 4.9 -11.9°
Maximum altitude 22:14:41 20° 39° (NE) 1,692 4.3 -12.5°
Enters shadow 22:16:43 17° 64° (ENE) 2,188 4.7 -13.0°
